This is the latest recevied weather packets stored in our database for station/object IW2DGQ-3. If no packets are shown the sender has not sent any weather packets the latest 10 day(s).
| Time | Temp. | Humidity | Pressure | Rain* | Wind** | Luminosity | Snow |
|---|---|---|---|---|---|---|---|
| 1787806808 | 22.22° C | 86% | 1017.9 hPa | - | - | - | - |
| 1787805607 | 21.67° C | 86% | 1017.5 hPa | - | - | - | - |
| 1787804407 | 21.67° C | 86% | 1017.6 hPa | - | - | - | - |
| 1787803207 | 21.67° C | 86% | 1017.7 hPa | - | - | - | - |
| 1787802006 | 21.67° C | 85% | 1017.6 hPa | - | - | - | - |
| 1787800806 | 22.22° C | 85% | 1017.5 hPa | - | - | - | - |
| 1787799606 | 22.22° C | 85% | 1017.5 hPa | - | - | - | - |
| 1787798405 | 22.22° C | 84% | 1017.3 hPa | - | - | - | - |
| 1787797205 | 22.22° C | 84% | 1017.3 hPa | - | - | - | - |
| 1787796005 | 22.22° C | 84% | 1017 hPa | - | - | - | - |
| 1787794805 | 22.22° C | 83% | 1016.9 hPa | - | - | - | - |
| 1787793604 | 22.22° C | 82% | 1017.1 hPa | - | - | - | - |
| 1787792404 | 22.78° C | 82% | 1017.5 hPa | - | - | - | - |
| 1787791204 | 23.33° C | 81% | 1017.5 hPa | - | - | - | - |
| 1787790003 | 23.33° C | 80% | 1017.7 hPa | - | - | - | - |
| 1787788803 | 23.33° C | 80% | 1017.6 hPa | - | - | - | - |
| 1787787603 | 23.33° C | 80% | 1017.5 hPa | - | - | - | - |
| 1787786402 | 23.33° C | 79% | 1017.3 hPa | - | - | - | - |
| 1787785202 | 23.89° C | 78% | 1017.3 hPa | - | - | - | - |
| 1787784002 | 23.89° C | 77% | 1017.6 hPa | - | - | - | - |
| 1787782801 | 24.44° C | 76% | 1017.7 hPa | - | - | - | - |
| 1787781601 | 24.44° C | 75% | 1017.6 hPa | - | - | - | - |
| 1787780401 | 24.44° C | 74% | 1017.9 hPa | - | - | - | - |
| 1787779200 | 25° C | 73% | 1017.5 hPa | - | - | - | - |
| 1787778000 | 25° C | 72% | 1017.4 hPa | - | - | - | - |
* Rain since midnight (hover to see other rain measurements)
** Current wind speed in m/s (hover to see current wind gust speed)